Regional Weather Roundup
Issued by NWS

Home | Current Version | Previous Version | Text Only | Print | Product List | Glossary Off
Versions: 1 2 3 4 5 6 7 8 9 10 11 12 13 14 15 16 17 18 19 20 21 22 23 24 25 26 27 28 29 30 31 32 33 34 35 36 37 38 39 40 41 42 43 44 45 46 47 48 49 50

000
ASUS44 KMEG 241300
RWRTN
TENNESSEE HOURLY STATE WEATHER ROUNDUP
NATIONAL WEATHER SERVICE MEMPHIS TN
800 AM CDT TUE MAY 24 2016

TNZ002-004-019-021-049-052-054-088>092-241400-
WEST TENNESSEE

CITY           SKY/WX    TMP DP  RH WIND       PRES   REMARKS
MEMPHIS INTL   CLOUDY    72  57  59 S7        30.06R
NWS MEMPHIS      N/A     71 N/A N/A MISG        N/A
JACKSON        CLOUDY    67  61  81 CALM      30.08R
DYERSBURG      MOSUNNY   68  55  64 S6        30.06R
UNION CITY     MOSUNNY   66  61  82 CALM      30.06R
PARIS          SUNNY     63  57  82 CALM      30.09R
LEXINGTON      MOSUNNY   63  61  94 CALM      30.08S
$$

TNZ008-025-027-028-033-062-065-066-241400-
NORTH MIDDLE TENNESSEE

CITY           SKY/WX    TMP DP  RH WIND       PRES   REMARKS
NASHVILLE      MOSUNNY   64  54  69 CALM      30.13R
CLARKSVILLE    MOSUNNY   64  55  72 SE3       30.09R
COOKEVILLE     SUNNY     64  55  72 CALM      30.12R
CROSSVILLE     SUNNY     72  52  49 CALM      30.17R
$$

TNZ061-075-076-078-094-096-097-241400-
SOUTH MIDDLE TENNESSEE

CITY           SKY/WX    TMP DP  RH WIND       PRES   REMARKS
TULLAHOMA      SUNNY     66  54  63 CALM      30.14R
WINCHESTER     SUNNY     70  52  52 SE6       30.13R
MCMINNVILLE    SUNNY     63  55  77 CALM      30.14R
COLUMBIA       SUNNY    N/A N/A N/A CALM      30.10R
SHELBYVILLE    SUNNY     66  55  68 SE3       30.14R
$$

TNZ017-018-042-046-047-241400-
NORTHEAST TENNESSEE

CITY           SKY/WX    TMP DP  RH WIND       PRES   REMARKS
TRI CITIES     SUNNY     57  51  80 CALM      30.19R
$$

TNZ012-013-036-069-073-074-241400-
CENTRAL EAST TENNESSEE

CITY           SKY/WX    TMP DP  RH WIND       PRES   REMARKS
KNOXVILLE      MOSUNNY   60  53  77 E3        30.17R
OAK RIDGE      SUNNY     61  53  75 CALM      30.17S
GATLINBURG     SUNNY     57  52  82 CALM      30.17R
$$

TNZ083-085-099-241400-
SOUTHEAST TENNESSEE

CITY           SKY/WX    TMP DP  RH WIND       PRES   REMARKS
CHATTANOOGA    MOSUNNY   65  54  67 CALM      30.16R
$$

SKY/WX REPORTED AS FAIR MEANS FEW OR NO CLOUDS BELOW
12 THOUSAND FEET.





USA.gov is the U.S. government's official web portal to all federal, state and local government web resources and services.